Regional Weather Roundup
Issued by NWS

Home | Current Version | Previous Version | Graphics & Text | Print | Product List | Glossary On
Versions: 1 2 3 4 5 6 7 8 9 10 11 12 13 14 15 16 17 18 19 20 21 22 23 24 25 26 27 28 29 30 31 32 33 34 35 36 37 38 39 40 41 42 43 44 45 46 47 48 49 50
707
ASUS43 KMKX 010800
RWRWI

WISCONSIN REGIONAL WEATHER ROUNDUP
NATIONAL WEATHER SERVICE MILWAUKEE/SULLIVAN WI
300 AM CDT SUN MAY 01 2016

NOTE: "FAIR" INDICATES FEW OR NO CLOUDS BELOW 12,000 FEET WITH NO
SIGNIFICANT WEATHER AND/OR OBSTRUCTIONS TO VISIBILITY.

WIZ001-002-006>008-014>016-023>028-010900-
NORTHWEST WISCONSIN

CITY           SKY/WX    TMP DP  RH WIND       PRES   REMARKS
SUPERIOR ARPT  CLEAR     38  30  74 NE8       30.23S WCI  32
ASHLAND        PTCLDY    38  34  85 NE9       30.21S WCI  31
HAYWARD        MOCLDY    35  31  85 NE10      30.17S WCI  27
SIREN          PTCLDY    39  32  74 NE7       30.16S WCI  34
CUMBERLAND     PTCLDY    37  30  75 N3        30.13S
RICE LAKE      PTCLDY    41  32  69 N10       30.15R
CHETEK         PTCLDY    42  32  66 NE6       30.12S
LADYSMITH      PTCLDY    40  32  72 NE9       30.14S WCI  35
EAU CLAIRE     NOT AVBL
MENOMONIE      CLOUDY    46  32  57 NE10      30.10S
NEW RICHMOND   CLOUDY    42  32  66 NE10      30.12S
OSCEOLA        CLOUDY    42  32  69 N6        30.16S
$$

WIZ003>005-009-010-017-018-010900-
NORTH CENTRAL WISCONSIN

CITY           SKY/WX    TMP DP  RH WIND       PRES   REMARKS
MANITOWISH WTR MOCLDY    36  35  95 N5        30.13F WCI  32
ARBOR VITAE    CLOUDY    37  34  87 NE7       30.12F WCI  32
WOODRUFF       CLOUDY    37  34  87 NE7       30.12F WCI  32
RHINELANDER    MOCLDY    36  31  82 N6        30.11F WCI  31
EAGLE RIVER    PTCLDY    34  32  93 N5        30.12S WCI  30
LAND O LAKES   CLOUDY    36  34  93 NE6       30.14S WCI  31
PHILLIPS       PTCLDY    36  32  86 NE7       30.12F WCI  30
TOMAHAWK       CLOUDY    37  31  79 N5        30.11F WCI  34
MEDFORD        CLOUDY    40  32  71 NE9       30.09R WCI  35
MERRILL        CLOUDY    41  32  70 NE7       30.10S
$$

WIZ029-030-035-036-043>047-010900-
CENTRAL WISCONSIN

CITY           SKY/WX    TMP DP  RH WIND       PRES   REMARKS
WAUSAU         CLOUDY    46  30  53 VRB6      30.06F
MOSINEE        CLOUDY    43  30  61 NE9       30.08S
MARSHFIELD     CLOUDY    46  29  51 NE10      30.06S
STEVENS POINT  CLOUDY    44  29  56 NE12      30.07S
WAUPACA        DRIZZLE   46  34  63 NE7       30.07R
WAUTOMA        LGT RAIN  44  35  70 NE13      30.05
WISC RAPIDS    CLOUDY    47  28  47 E9G18     30.07S
CAMP DOUGLAS   NOT AVBL
$$

WIZ011>013-019>022-031-037>040-048>050-010900-
NORTHEAST WISCONSIN

CITY           SKY/WX    TMP DP  RH WIND       PRES   REMARKS
ANTIGO         CLOUDY    40  32  74 NE13      30.08S WCI  33
SHAWANO        CLOUDY    46  34  62 NE9       30.08S
OCONTO         CLOUDY    43  34  71 N3        30.07R
STURGEON BAY   CLOUDY    45  32  61 N8        30.08S
GREEN BAY      CLOUDY    44  36  73 NE17      30.05F
MANITOWOC      NOT AVBL
APPLETON       CLOUDY    43  32  65 NE10G16   30.04S
CLINTONVILLE   CLOUDY    45  32  61 NE9       30.07S
OSHKOSH        LGT RAIN  44  37  76 N17       30.03S
$$

WIZ032>034-041-042-053>061-010900-
SOUTHWEST WISCONSIN

CITY           SKY/WX    TMP DP  RH WIND       PRES   REMARKS
LA CROSSE      CLOUDY    48  37  65 NE12      30.05S
SPARTA         CLOUDY    46  38  73 NE9       30.06R
VIROQUA        CLOUDY    43  38  82 NE14      30.03R
BOSCOBEL       CLOUDY    47  38  71 VRB7      30.01S
PRAIRIE DU CHI CLOUDY    46  38  75 NE7       30.01R
PLATTEVILLE    CLOUDY    44  43  97 NE10      29.96S
$$

WIZ056-057-062-063-064-067-068-010900-
SOUTH CENTRAL WISCONSIN

CITY           SKY/WX    TMP DP  RH WIND       PRES   REMARKS
REEDSBURG      CLOUDY    43  38  82 NE8       30.02S
BARABOO/DELLS  CLOUDY    43  38  83 NE9       30.02S
LONE ROCK      NOT AVBL
MINERAL POINT  LGT RAIN  43  43 100 NE10G17   29.97S
MADISON        CLOUDY    44  40  85 NE13      29.98F
MIDDLETON      CLOUDY    45  42  89 NE15G21   29.99F
WATERTOWN      CLOUDY    44  44 100 N9        29.98S
MONROE         CLOUDY    43  43 100 NE14      29.95S FOG
JANESVILLE     CLOUDY    45  45 100 NE6       29.95S FOG
$$

WIZ051-052-058>065-066-070>072-010900-
SOUTHEAST WISCONSIN

CITY           SKY/WX    TMP DP  RH WIND       PRES   REMARKS
MILWAUKEE      CLOUDY    43  41  93 N15       29.97F
WAUKESHA       CLOUDY    41  41 100 NE9       29.98F FOG
MILWAUKEE/TIMM CLOUDY    43  37  81 NE12G18   29.99R
RACINE         LGT RAIN  43  41  93 NE15G24   29.98S FOG
BURLINGTON     CLOUDY    42  42  99 NE8G16    29.95S FOG
KENOSHA        CLOUDY    44  42  93 NE14      29.95S FOG
FOND DU LAC    CLOUDY    45  38  76 NE16      30.02S
SHEBOYGAN      CLOUDY    43  38  82 N12       30.01S
WEST BEND      CLOUDY    41  37  87 NE7       30.00S
JUNEAU         CLOUDY    42  38  87 N12       30.01R
$$

LSZ147-162-010900-
LAKE SUPERIOR

STATION/POSITION TIME  TEMP    WIND        PRES    WAVE
                       AIR SEA DIR/SP/G            HT/PER
                 (UTC) (F)     (DEG/KT/KT) (MB)    (FT/S)
W MID LAKE BUOY  0650   39 37   20/ 12/ 14 1024.0F   2/ 4
DEVILS ISLAND    0700   39      50/ 12/ 14 1024.2F
PORT WING        0700   38      40/  8/ 10 1023.7S
SAXON HARBOR     0700   39      50/  8/ 10 1022.4
$$

LMZ867-665-643>646-010900-
LAKE MICHIGAN

STATION/POSITION TIME  TEMP    WIND        PRES    WAVE
                       AIR SEA DIR/SP/G            HT/PER
                 (UTC) (F)     (DEG/KT/KT) (MB)    (FT/S)
CHAMBERS ISLAND  0700   42      10/ 10/ 12 1019.0
N MID LAKE BUOY  0650   40 38   30/ 12/ 14 1018.3F   2/ 4
NORTHPORT PIER   0700   41     360/  9/ 10 1018.6R
ALGOMA LAKESHORE 0700           40/ 15/ 23   N/A
KEWAUNEE LAKESHO 0700   42      30/ 12/ 15 1017.3F
SHEBOYGAN LAKESH 0700   42      10/ 19/ 20 1016.9F
PORT WASHINGTON  0700   44      10/  9/ 14 1016.6F
S MID LAKE BUOY  0650   42 40   50/ 14/ 16 1013.3F   3/ 4
KENOSHA   LAKESH 0700   42      20/ 16/ 19 1014.2R
$$

TC  - TEMPERATURE IN CELSIUS
VSB - VISIBILITY IN STATUTE MILES
WCI - WIND CHILL INDEX
HX  - HEAT INDEX





USA.gov is the U.S. government's official web portal to all federal, state and local government web resources and services.